Location: ???????
(38.3360°N, 23.6977°E)
Time: 00:17:15
(UTC+00:00)

Landsat 7 - Visible Passes

Search period start: 13 February 2026 00:00
Search period end: 23 February 2026 00:00
Orbit: 680 x 682 km, 97.9° (Epoch: 11 February)

Date Brightness Start Highest point End Pass type
(mag) Time Alt. Az. Time Alt. Az. Time Alt. Az.
13 Feb 4.0 04:38:58 10° NNE 04:43:38 75° ESE 04:48:16 10° S visible
13 Feb 7.3 17:20:36 10° WSW 17:22:27 12° W 17:24:18 10° WNW visible
14 Feb 6.9 03:39:10 10° NE 03:42:07 17° E 03:45:03 10° SE visible
15 Feb 5.3 04:14:04 10° NNE 04:18:27 39° E 04:22:47 10° SSE visible
15 Feb 6.6 16:53:27 10° SSW 16:57:05 23° W 17:00:44 10° NW visible
17 Feb 6.5 03:49:34 10° NE 03:53:09 22° E 03:56:43 10° SE visible
17 Feb 5.4 16:27:26 10° S 16:31:49 41° W 16:36:12 10° NNW visible
18 Feb 4.7 04:24:52 10° NNE 04:29:25 53° E 04:33:57 10° S visible
18 Feb 7.0 17:05:05 10° SW 17:08:07 17° W 17:11:10 10° NW visible
19 Feb 7.3 03:26:09 10° ENE 03:27:47 12° E 03:29:25 10° ESE visible
20 Feb 6.0 04:00:09 10° NE 04:04:11 28° E 04:08:10 10° SSE visible
20 Feb 6.0 16:38:41 10° SSW 16:42:47 31° W 16:46:56 10° NW visible
21 Feb 4.2 04:35:43 10° NNE 04:40:23 71° ESE 04:45:00 10° S visible
21 Feb 7.3 17:17:04 10° WSW 17:19:09 13° W 17:21:17 10° WNW visible
22 Feb 7.0 03:36:02 10° NE 03:38:49 16° E 03:41:37 10° SE visible
